Jaipur, India

6:12 PM IST on May 30, 2017 (GMT +0530)
Jaipur

Weather History for VIJP - April, 2013

Change the Weather History Date:

Saturday, April 27, 2013

  Actual Average Record
Temperature  
Mean Temperature 90 °F -  
Max Temperature 102 °F - - ()
Min Temperature 78 °F - - ()
Cooling Degree Days 25    
Growing Degree Days 40 (Base 50)    
Moisture  
Dew Point 53 °F    
Average Humidity 26    
Maximum Humidity 42    
Minimum Humidity 11    
Precipitation  
Precipitation 0.00 in - - ()
Sea Level Pressure  
Sea Level Pressure 29.81 in    
Wind  
Wind Speed 5 mph ()    
Max Wind Speed 13 mph    
Max Gust Speed 25 mph    
Visibility 2.4 miles    
Events      
T = Trace of Precipitation, MM = Missing Value Source: Averaged Metar Reports

Daily Weather History Graph

Daily Weather History Graph

Search for Another Location

Airport or City:

Trip Planner

Search our weather history database for the weather conditions in past years. The results will help you decide how hot, cold, wet, or windy it might be!

Date:

Astronomy

Apr. 27, 2013 Rise Set
Actual Time 5:52 AM IST 6:57 PM IST
Civil Twilight 5:27 AM IST 7:21 PM IST
Nautical Twilight 4:59 AM IST 7:50 PM IST
Astronomical Twilight 4:29 AM IST 8:19 PM IST
Moon 8:47 PM IST (4/27) 6:53 AM IST (4/27)
Length of Visible Light 13h 53m
Length of Day
13h 05m
Full, 97% of the Moon is Illuminated
Apr 27
Full
May 2
Last Quarter
May 10
New
May 18
First Quarter
May 25
Full

Hourly Weather History & Observations

Time (IST) Temp. Heat Index Dew Point Humidity Pressure Visibility Wind Dir Wind Speed Gust Speed Precip Events Conditions
12:00 AM 86.0 °F 84.5 °F 55.4 °F 35% 29.83 in 2.5 mi NE 5.8 mph - N/A   Haze
2:00 AM 86.0 °F 84.2 °F 53.6 °F 33% 29.83 in 2.5 mi NE 6.9 mph - N/A   Haze
2:30 AM 86 °F - 54 °F 24% 29.74 in 2 mi North 9.2 mph - -   Haze
3:00 AM 84.2 °F 82.8 °F 53.6 °F 35% 29.80 in 2.5 mi NE 5.8 mph - N/A   Haze
4:00 AM 84.2 °F 82.8 °F 53.6 °F 35% 29.83 in 2.5 mi NE 4.6 mph - N/A   Haze
5:00 AM 82.4 °F 81.7 °F 55.4 °F 39% 29.83 in 2.5 mi East 5.8 mph - N/A   Haze
5:30 AM 81 °F - 56 °F 31% 29.76 in 2 mi SE 4.6 mph - -   Haze
6:00 AM 80.6 °F 80.5 °F 55.4 °F 42% 29.86 in 2.5 mi Variable 2.3 mph - N/A   Haze
7:00 AM 82.4 °F 82.0 °F 57.2 °F 42% 29.86 in 2.5 mi Variable 3.5 mph - N/A   Haze
8:00 AM 86.0 °F 84.9 °F 57.2 °F 37% 29.89 in 2.5 mi ENE 4.6 mph - N/A   Haze
8:30 AM 87 °F - 57 °F 26% 29.80 in 2 mi East 4.6 mph - -   Haze
9:00 AM 87.8 °F 86.1 °F 55.4 °F 33% 29.89 in 2.5 mi ESE 4.6 mph - N/A   Haze
10:00 AM 91.4 °F 89.1 °F 53.6 °F 28% 29.92 in 2.5 mi ESE 5.8 mph - N/A   Haze
11:00 AM 93.2 °F 90.8 °F 53.6 °F 26% 29.89 in 2.5 mi SE 6.9 mph - N/A   Haze
11:30 AM 96 °F - 52 °F 14% 29.78 in 2 mi NE 4.6 mph - -   Haze
11:30 AM 95.0 °F - 51.8 °F 23% 29.89 in 2.5 mi Variable 5.8 mph - N/A   Haze
12:00 PM 96.8 °F - 51.8 °F 22% 29.89 in 2.5 mi Variable 4.6 mph - N/A   Haze
12:30 PM 96.8 °F - 51.8 °F 22% 29.89 in 2.5 mi South 5.8 mph - N/A   Haze
1:00 PM 98.6 °F - 50.0 °F 19% 29.86 in 2.5 mi Variable 1.2 mph - N/A   Haze
2:00 PM 100.4 °F - 50.0 °F 18% 29.83 in 2.5 mi NW 9.2 mph 25.3 mph N/A   Haze
2:30 PM 100 °F - 61 °F 19% 29.70 in 2 mi SE 4.6 mph - -   Haze
3:00 PM 98.6 °F - 50.0 °F 19% 29.80 in 3.1 mi Variable 2.3 mph 13.8 mph N/A   Haze
4:00 PM 98.6 °F - 48.2 °F 18% 29.77 in 3.1 mi NNW 5.8 mph - N/A   Haze
5:00 PM 100.4 °F - 50.0 °F 18% 29.77 in 3.1 mi NW 5.8 mph - N/A   Haze
5:30 PM 100 °F - 50 °F 11% 29.65 in 2 mi NW 4.6 mph - -   Haze
6:00 PM 96.8 °F - 50.0 °F 20% 29.77 in 3.1 mi NNW 3.5 mph - N/A   Haze
8:00 PM 95.0 °F - 50.0 °F 22% 29.77 in 2.5 mi NNE 3.5 mph - N/A   Haze
8:30 PM 94 °F - 52 °F 15% 29.68 in 2 mi NE 5.8 mph - -   Haze
9:00 PM 93.2 °F - 50.0 °F 23% 29.80 in 2.5 mi NE 5.8 mph - N/A   Haze
10:00 PM 89.6 °F 87.7 °F 55.4 °F 31% 29.80 in 2.5 mi NNE 11.5 mph - N/A   Haze
11:00 PM 87.8 °F 85.7 °F 53.6 °F 31% 29.83 in 2.2 mi NNE 12.7 mph - N/A   Widespread Dust
11:30 PM 87 °F - 54 °F 22% 29.73 in 1 mi NE 11.5 mph - -   Blowing Sand